This demonstration page uses our WeatherBlox Daily Observations layout. Learn more.

Left ArrowRight Arrow

Hourly Observations for October 8, 2021

Temp ( °F °C ) Dew Point ( °F °C ) Humidity (%) Winds ( mph kmh ) Pressure ( in mb ) Visibility ( mi km ) Precip ( " mm )
12:53 am 00:53 Clear 74 23.3 49 9.4 41 41 SE 10 17 29.89 1012 10 16 N/A
1:53 am 01:53 Clear 72 22.2 48 8.9 43 43 ESE 9 15 29.88 1012 10 16 N/A
2:53 am 02:53 Clear 70 21.1 48 8.9 46 46 ESE 7 11 29.88 1012 10 16 N/A
3:53 am 03:53 Clear 68 20 47 8.3 47 47 ESE 7 11 29.88 1012 10 16 N/A
4:53 am 04:53 Clear 66 18.9 47 8.3 50 50 SE 6 9 29.88 1012 10 16 N/A
5:53 am 05:53 Clear 62 16.7 45 7.2 54 54 E 6 9 29.89 1012 10 16 N/A
6:53 am 06:53 Clear 63 17.2 46 7.8 54 54 ESE 6 9 29.91 1013 10 16 N/A
7:53 am 07:53 Sunny 61 16.1 45 7.2 56 56 ESE 3 6 29.93 1014 10 16 N/A
8:53 am 08:53 Sunny 66 18.9 46 7.8 49 49 SSE 6 9 29.95 1014 10 16 N/A
9:53 am 09:53 Sunny 71 21.7 47 8.3 42 42 N N/A 29.97 1015 10 16 N/A
10:53 am 10:53 Sunny 78 25.6 47 8.3 33 33 SE 6 9 29.97 1015 10 16 N/A
11:53 am 11:53 Sunny 85 29.4 43 6.1 23 23 S 6 9 29.96 1015 10 16 N/A
12:53 pm 12:53 Sunny 90 32.2 42 5.6 19 19 SSE 10 17 29.93 1014 10 16 N/A
1:53 pm 13:53 Sunny 92 33.3 42 5.6 18 18 undefined N/A 29.91 1013 10 16 N/A
2:53 pm 14:53 Sunny 94 34.4 43 6.1 17 17 SW 8 13 29.87 1011 10 16 N/A
3:53 pm 15:53 Sunny 95 35 43 6.1 17 17 S 8 13 29.83 1010 10 16 N/A
4:53 pm 16:53 Sunny 96 35.6 43 6.1 16 16 WSW 12 19 29.82 1010 10 16 N/A
5:53 pm 17:53 Sunny 96 35.6 39 3.9 14 14 SW 7 11 29.82 1010 10 16 N/A
6:53 pm 18:53 Sunny 94 34.4 41 5 16 16 S 6 9 29.82 1010 10 16 N/A
7:53 pm 19:53 Clear 89 31.7 44 6.7 21 21 SE 15 24 29.84 1010 10 16 N/A
8:53 pm 20:53 Clear 85 29.4 44 6.7 24 24 SE 15 24 29.84 1011 10 16 N/A
9:53 pm 21:53 Clear 83 28.3 46 7.8 27 27 SSE 15 24 29.85 1011 10 16 N/A
10:53 pm 22:53 Clear 79 26.1 47 8.3 32 32 SSE 15 24 29.85 1011 10 16 N/A
11:53 pm 23:53 Clear 77 25 49 9.4 37 37 SE 14 22 29.85 1011 10 16 N/A

Powered by AerisWeather